Time,TemperatureF,DewpointF,PressureIn,WindDirection,WindDirectionDegrees,WindSpeedMPH,WindSpeedGustMPH,Humidity,HourlyPrecipIn,Conditions,Clouds,dailyrainin,SolarRadiationWatts/m^2,SoftwareType,DateUTC
2013-12-10 00:01:00,26.6,23.8,29.84,West,261,0.0,3.0,89,0.00,,,0.00,0.0,WUHU216DAVISVP2,2013-12-10 05:01:00,
2013-12-10 00:02:00,26.6,23.8,29.84,West,261,1.0,2.0,89,0.00,,,0.00,0.0,WUHU216DAVISVP2,2013-12-10 05:02:00,
2013-12-10 00:07:00,26.5,23.7,29.84,West,264,0.0,3.0,89,0.00,,,0.00,0.0,WUHU216DAVISVP2,2013-12-10 05:07:00,
2013-12-10 00:12:00,26.4,23.6,29.84,West,264,0.0,3.0,89,0.00,,,0.00,0.0,WUHU216DAVISVP2,2013-12-10 05:12:00,
2013-12-10 00:17:00,26.4,23.6,29.83,West,264,0.0,3.0,89,0.00,,,0.00,0.0,WUHU216DAVISVP2,2013-12-10 05:17:00,
2013-12-10 00:22:00,26.2,23.4,29.83,West,264,0.0,3.0,89,0.00,,,0.00,0.0,WUHU216DAVISVP2,2013-12-10 05:22:00,
2013-12-10 00:27:00,26.1,23.3,29.83,West,264,0.0,1.0,89,0.00,,,0.00,0.0,WUHU216DAVISVP2,2013-12-10 05:27:00,
2013-12-10 00:32:00,25.9,22.8,29.83,West,264,0.0,1.0,88,0.00,,,0.00,0.0,WUHU216DAVISVP2,2013-12-10 05:32:00,
2013-12-10 00:37:00,25.7,22.6,29.83,West,264,0.0,1.0,88,0.00,,,0.00,0.0,WUHU216DAVISVP2,2013-12-10 05:37:00,
2013-12-10 00:42:00,25.5,22.4,29.83,West,264,0.0,1.0,88,0.00,,,0.00,0.0,WUHU216DAVISVP2,2013-12-10 05:42:00,
2013-12-10 00:47:00,25.3,22.2,29.83,West,264,0.0,1.0,88,0.00,,,0.00,0.0,WUHU216DAVISVP2,2013-12-10 05:47:00,
2013-12-10 00:52:00,25.0,21.9,29.83,West,264,0.0,1.0,88,0.00,,,0.00,0.0,WUHU216DAVISVP2,2013-12-10 05:52:00,
2013-12-10 00:57:00,24.8,21.7,29.83,West,264,0.0,1.0,88,0.00,,,0.00,0.0,WUHU216DAVISVP2,2013-12-10 05:57:00,
2013-12-10 01:02:00,24.5,21.5,29.83,West,264,0.0,1.0,88,0.00,,,0.00,0.0,WUHU216DAVISVP2,2013-12-10 06:02:00,
2013-12-10 01:07:00,24.2,20.9,29.84,West,264,0.0,1.0,87,0.00,,,0.00,0.0,WUHU216DAVISVP2,2013-12-10 06:07:00,
2013-12-10 01:12:00,24.1,21.0,29.83,West,264,0.0,1.0,88,0.00,,,0.00,0.0,WUHU216DAVISVP2,2013-12-10 06:12:00,
2013-12-10 01:17:00,24.0,20.7,29.82,West,264,0.0,1.0,87,0.00,,,0.00,0.0,WUHU216DAVISVP2,2013-12-10 06:17:00,
2013-12-10 01:22:00,23.7,20.4,29.83,West,264,0.0,1.0,87,0.00,,,0.00,0.0,WUHU216DAVISVP2,2013-12-10 06:22:00,
2013-12-10 01:27:00,23.5,20.2,29.83,West,264,0.0,1.0,87,0.00,,,0.00,0.0,WUHU216DAVISVP2,2013-12-10 06:27:00,
2013-12-10 01:32:00,23.4,20.1,29.83,West,264,0.0,1.0,87,0.00,,,0.00,0.0,WUHU216DAVISVP2,2013-12-10 06:32:00,
2013-12-10 01:37:00,23.3,20.0,29.83,West,264,0.0,1.0,87,0.00,,,0.00,0.0,WUHU216DAVISVP2,2013-12-10 06:37:00,
2013-12-10 01:42:00,23.1,19.8,29.83,West,264,0.0,1.0,87,0.00,,,0.00,0.0,WUHU216DAVISVP2,2013-12-10 06:42:00,
2013-12-10 01:47:00,22.9,19.6,29.82,West,264,0.0,1.0,87,0.00,,,0.00,0.0,WUHU216DAVISVP2,2013-12-10 06:47:00,
2013-12-10 01:52:00,22.7,19.4,29.82,West,264,1.0,2.0,87,0.00,,,0.00,0.0,WUHU216DAVISVP2,2013-12-10 06:52:00,
2013-12-10 01:57:00,22.5,19.2,29.82,West,264,0.0,2.0,87,0.00,,,0.00,0.0,WUHU216DAVISVP2,2013-12-10 06:57:00,
2013-12-10 02:02:00,22.3,19.0,29.82,West,264,0.0,2.0,87,0.00,,,0.00,0.0,WUHU216DAVISVP2,2013-12-10 07:02:00,
2013-12-10 02:07:00,22.2,18.9,29.82,West,264,0.0,2.0,87,0.00,,,0.00,0.0,WUHU216DAVISVP2,2013-12-10 07:07:00,
2013-12-10 02:12:00,22.2,19.2,29.83,West,264,0.0,1.0,88,0.00,,,0.00,0.0,WUHU216DAVISVP2,2013-12-10 07:12:00,
2013-12-10 02:17:00,22.1,19.0,29.82,West,264,0.0,1.0,88,0.00,,,0.00,0.0,WUHU216DAVISVP2,2013-12-10 07:17:00,
2013-12-10 02:22:00,22.1,19.0,29.83,West,264,0.0,1.0,88,0.00,,,0.00,0.0,WUHU216DAVISVP2,2013-12-10 07:22:00,
2013-12-10 02:27:00,22.1,19.0,29.83,West,264,0.0,1.0,88,0.00,,,0.00,0.0,WUHU216DAVISVP2,2013-12-10 07:27:00,
2013-12-10 02:32:00,22.1,19.1,29.82,West,264,0.0,1.0,88,0.00,,,0.00,0.0,WUHU216DAVISVP2,2013-12-10 07:32:00,
2013-12-10 02:37:00,22.2,19.4,29.82,West,264,1.0,1.0,89,0.00,,,0.00,0.0,WUHU216DAVISVP2,2013-12-10 07:37:00,
2013-12-10 02:42:00,22.2,19.4,29.83,West,264,0.0,1.0,89,0.00,,,0.00,0.0,WUHU216DAVISVP2,2013-12-10 07:42:00,
2013-12-10 02:47:00,22.2,19.4,29.83,West,264,0.0,1.0,89,0.00,,,0.00,0.0,WUHU216DAVISVP2,2013-12-10 07:47:00,
2013-12-10 02:52:00,22.3,19.5,29.82,West,264,1.0,2.0,89,0.00,,,0.00,0.0,WUHU216DAVISVP2,2013-12-10 07:52:00,
2013-12-10 02:57:00,22.5,19.7,29.83,West,264,1.0,2.0,89,0.00,,,0.00,0.0,WUHU216DAVISVP2,2013-12-10 07:57:00,
2013-12-10 03:02:00,22.5,19.7,29.83,West,264,0.0,2.0,89,0.00,,,0.00,0.0,WUHU216DAVISVP2,2013-12-10 08:02:00,
2013-12-10 03:07:00,22.7,19.9,29.83,West,265,0.0,2.0,89,0.00,,,0.00,0.0,WUHU216DAVISVP2,2013-12-10 08:07:00,
2013-12-10 03:12:00,22.8,20.3,29.83,West,265,0.0,2.0,90,0.00,,,0.00,0.0,WUHU216DAVISVP2,2013-12-10 08:12:00,
2013-12-10 03:17:00,22.9,20.1,29.83,West,265,0.0,2.0,89,0.00,,,0.00,0.0,WUHU216DAVISVP2,2013-12-10 08:17:00,
2013-12-10 03:22:00,23.0,20.5,29.83,West,265,0.0,2.0,90,0.00,,,0.00,0.0,WUHU216DAVISVP2,2013-12-10 08:22:00,
2013-12-10 03:27:00,23.1,20.6,29.83,West,277,2.0,3.0,90,0.00,,,0.00,0.0,WUHU216DAVISVP2,2013-12-10 08:27:00,
2013-12-10 03:32:00,23.4,20.9,29.83,West,277,1.0,3.0,90,0.00,,,0.00,0.0,WUHU216DAVISVP2,2013-12-10 08:32:00,
2013-12-10 03:37:00,23.5,21.0,29.83,West,277,0.0,3.0,90,0.00,,,0.00,0.0,WUHU216DAVISVP2,2013-12-10 08:37:00,
2013-12-10 03:42:00,23.5,21.0,29.82,West,277,0.0,3.0,90,0.00,,,0.00,0.0,WUHU216DAVISVP2,2013-12-10 08:42:00,
2013-12-10 03:47:00,23.5,21.0,29.83,West,277,0.0,1.0,90,0.00,,,0.00,0.0,WUHU216DAVISVP2,2013-12-10 08:47:00,
2013-12-10 03:52:00,23.5,21.0,29.83,West,277,0.0,1.0,90,0.00,,,0.00,0.0,WUHU216DAVISVP2,2013-12-10 08:52:00,
2013-12-10 03:57:00,23.5,21.0,29.83,West,277,0.0,1.0,90,0.00,,,0.00,0.0,WUHU216DAVISVP2,2013-12-10 08:57:00,
2013-12-10 04:02:00,23.5,21.0,29.82,West,277,0.0,1.0,90,0.00,,,0.00,0.0,WUHU216DAVISVP2,2013-12-10 09:02:00,
2013-12-10 04:04:00,23.5,21.0,29.81,West,277,0.0,1.0,90,0.00,,,0.00,0.0,WUHU216DAVISVP2,2013-12-10 09:04:00,
2013-12-10 04:09:00,23.6,21.0,29.81,West,277,0.0,1.0,90,0.00,,,0.00,0.0,WUHU216DAVISVP2,2013-12-10 09:09:00,
2013-12-10 04:14:00,23.6,21.0,29.82,West,277,0.0,1.0,90,0.00,,,0.00,0.0,WUHU216DAVISVP2,2013-12-10 09:14:00,
2013-12-10 04:19:00,23.6,21.0,29.83,West,277,0.0,1.0,90,0.00,,,0.00,0.0,WUHU216DAVISVP2,2013-12-10 09:19:00,
2013-12-10 04:24:00,23.6,21.1,29.84,West,277,0.0,1.0,90,0.00,,,0.00,0.0,WUHU216DAVISVP2,2013-12-10 09:24:00,
2013-12-10 04:29:00,23.6,21.0,29.83,West,277,0.0,0.0,90,0.00,,,0.00,0.0,WUHU216DAVISVP2,2013-12-10 09:29:00,
2013-12-10 04:34:00,23.6,21.0,29.83,West,277,0.0,0.0,90,0.00,,,0.00,0.0,WUHU216DAVISVP2,2013-12-10 09:34:00,
2013-12-10 04:39:00,23.8,21.2,29.83,West,277,1.0,2.0,90,0.00,,,0.00,0.0,WUHU216DAVISVP2,2013-12-10 09:39:00,
2013-12-10 04:44:00,23.9,21.3,29.83,West,277,0.0,2.0,90,0.00,,,0.00,0.0,WUHU216DAVISVP2,2013-12-10 09:44:00,
2013-12-10 04:49:00,23.9,21.3,29.82,West,277,0.0,2.0,90,0.00,,,0.00,0.0,WUHU216DAVISVP2,2013-12-10 09:49:00,
2013-12-10 04:54:00,24.0,21.4,29.83,West,277,1.0,2.0,90,0.00,,,0.00,0.0,WUHU216DAVISVP2,2013-12-10 09:54:00,
2013-12-10 04:59:00,24.0,21.4,29.82,West,277,0.0,1.0,90,0.00,,,0.00,0.0,WUHU216DAVISVP2,2013-12-10 09:59:00,
2013-12-10 05:04:00,24.1,21.5,29.83,West,277,0.0,1.0,90,0.00,,,0.00,0.0,WUHU216DAVISVP2,2013-12-10 10:04:00,
2013-12-10 05:09:00,24.1,21.5,29.83,West,277,0.0,1.0,90,0.00,,,0.00,0.0,WUHU216DAVISVP2,2013-12-10 10:09:00,
2013-12-10 05:14:00,24.1,21.5,29.83,West,277,0.0,1.0,90,0.00,,,0.00,0.0,WUHU216DAVISVP2,2013-12-10 10:14:00,
2013-12-10 05:19:00,24.2,21.7,29.84,West,277,1.0,2.0,90,0.00,,,0.00,0.0,WUHU216DAVISVP2,2013-12-10 10:19:00,
2013-12-10 05:24:00,24.3,21.7,29.84,West,277,0.0,2.0,90,0.00,,,0.00,0.0,WUHU216DAVISVP2,2013-12-10 10:24:00,
2013-12-10 05:29:00,24.3,21.7,29.85,West,277,0.0,2.0,90,0.00,,,0.00,0.0,WUHU216DAVISVP2,2013-12-10 10:29:00,
2013-12-10 05:34:00,24.3,21.8,29.85,West,277,0.0,2.0,90,0.00,,,0.00,0.0,WUHU216DAVISVP2,2013-12-10 10:34:00,
2013-12-10 05:39:00,24.3,21.7,29.85,West,262,1.0,1.0,90,0.00,,,0.00,0.0,WUHU216DAVISVP2,2013-12-10 10:39:00,
2013-12-10 05:44:00,24.4,21.8,29.85,SSE,159,0.0,2.0,90,0.00,,,0.00,0.0,WUHU216DAVISVP2,2013-12-10 10:44:00,
2013-12-10 05:49:00,24.4,21.8,29.85,SSE,159,0.0,2.0,90,0.00,,,0.00,0.0,WUHU216DAVISVP2,2013-12-10 10:49:00,
2013-12-10 05:54:00,24.5,21.9,29.85,South,169,1.0,2.0,90,0.00,,,0.00,0.0,WUHU216DAVISVP2,2013-12-10 10:54:00,
2013-12-10 05:59:00,24.7,22.1,29.85,South,178,0.0,2.0,90,0.00,,,0.00,0.0,WUHU216DAVISVP2,2013-12-10 10:59:00,
2013-12-10 06:04:00,24.7,22.2,29.84,South,178,0.0,2.0,90,0.00,,,0.00,0.0,WUHU216DAVISVP2,2013-12-10 11:04:00,
2013-12-10 06:09:00,24.8,22.2,29.84,South,178,0.0,2.0,90,0.00,,,0.00,0.0,WUHU216DAVISVP2,2013-12-10 11:09:00,
2013-12-10 06:14:00,24.8,22.3,29.85,South,178,0.0,1.0,90,0.00,,,0.00,0.0,WUHU216DAVISVP2,2013-12-10 11:14:00,
2013-12-10 06:19:00,24.9,22.4,29.84,South,178,1.0,1.0,90,0.00,,,0.00,0.0,WUHU216DAVISVP2,2013-12-10 11:19:00,
2013-12-10 06:24:00,25.1,22.5,29.84,South,178,0.0,1.0,90,0.00,,,0.00,0.0,WUHU216DAVISVP2,2013-12-10 11:24:00,
2013-12-10 06:29:00,25.3,23.0,29.83,SSW,208,1.0,2.0,91,0.00,,,0.00,0.0,WUHU216DAVISVP2,2013-12-10 11:29:00,
2013-12-10 06:34:00,25.3,23.0,29.82,SSW,208,1.0,2.0,91,0.00,,,0.00,0.0,WUHU216DAVISVP2,2013-12-10 11:34:00,
2013-12-10 06:39:00,25.3,23.0,29.82,SSW,208,0.0,2.0,91,0.00,,,0.00,0.0,WUHU216DAVISVP2,2013-12-10 11:39:00,
2013-12-10 06:44:00,25.4,23.1,29.81,SSW,208,0.0,2.0,91,0.00,,,0.00,0.0,WUHU216DAVISVP2,2013-12-10 11:44:00,
2013-12-10 06:49:00,25.4,22.8,29.81,SSW,208,0.0,1.0,90,0.00,,,0.00,0.0,WUHU216DAVISVP2,2013-12-10 11:49:00,
2013-12-10 06:54:00,25.5,22.9,29.81,SSW,208,0.0,2.0,90,0.00,,,0.00,0.0,WUHU216DAVISVP2,2013-12-10 11:54:00,
2013-12-10 06:59:00,25.5,22.9,29.81,SSW,208,0.0,2.0,90,0.00,,,0.00,0.0,WUHU216DAVISVP2,2013-12-10 11:59:00,
2013-12-10 07:04:00,25.5,23.0,29.82,South,175,1.0,2.0,90,0.00,,,0.00,0.0,WUHU216DAVISVP2,2013-12-10 12:04:00,
2013-12-10 07:09:00,25.5,22.9,29.82,South,171,0.0,2.0,90,0.00,,,0.00,0.0,WUHU216DAVISVP2,2013-12-10 12:09:00,
2013-12-10 07:14:00,25.6,23.0,29.82,South,171,0.0,2.0,90,0.00,,,0.00,0.0,WUHU216DAVISVP2,2013-12-10 12:14:00,
2013-12-10 07:19:00,25.6,23.0,29.82,South,171,0.0,2.0,90,0.00,,,0.00,0.0,WUHU216DAVISVP2,2013-12-10 12:19:00,
2013-12-10 07:24:00,25.6,23.0,29.83,South,171,0.0,2.0,90,0.00,,,0.00,0.0,WUHU216DAVISVP2,2013-12-10 12:24:00,
2013-12-10 07:29:00,25.8,23.5,29.85,SSW,194,0.0,2.0,91,0.00,,,0.00,0.0,WUHU216DAVISVP2,2013-12-10 12:29:00,
2013-12-10 07:34:00,26.0,23.7,29.85,SSW,194,0.0,2.0,91,0.00,,,0.00,0.0,WUHU216DAVISVP2,2013-12-10 12:34:00,
2013-12-10 07:39:00,26.0,23.7,29.85,SSW,194,1.0,2.0,91,0.00,,,0.00,5.0,WUHU216DAVISVP2,2013-12-10 12:39:00,
2013-12-10 07:44:00,26.3,24.0,29.86,SSW,195,1.0,2.0,91,0.00,,,0.00,7.0,WUHU216DAVISVP2,2013-12-10 12:44:00,
2013-12-10 07:49:00,26.4,24.1,29.84,SSW,196,2.0,2.0,91,0.00,,,0.00,5.0,WUHU216DAVISVP2,2013-12-10 12:49:00,
2013-12-10 07:54:00,26.9,24.6,29.84,WNW,284,2.0,3.0,91,0.00,,,0.00,5.0,WUHU216DAVISVP2,2013-12-10 12:54:00,
2013-12-10 07:59:00,27.2,24.9,29.83,WNW,283,1.0,3.0,91,0.00,,,0.00,5.0,WUHU216DAVISVP2,2013-12-10 12:59:00,
2013-12-10 08:04:00,27.3,25.0,29.83,WNW,283,0.0,3.0,91,0.00,,,0.00,7.0,WUHU216DAVISVP2,2013-12-10 13:04:00,
2013-12-10 08:09:00,27.4,25.1,29.82,WNW,283,1.0,3.0,91,0.00,,,0.00,7.0,WUHU216DAVISVP2,2013-12-10 13:09:00,
2013-12-10 08:14:00,27.5,25.2,29.83,WNW,283,0.0,2.0,91,0.00,,,0.00,9.0,WUHU216DAVISVP2,2013-12-10 13:14:00,
2013-12-10 08:19:00,27.5,25.2,29.83,WNW,283,0.0,2.0,91,0.00,,,0.00,7.0,WUHU216DAVISVP2,2013-12-10 13:19:00,
2013-12-10 08:24:00,27.6,25.3,29.82,WNW,283,0.0,2.0,91,0.00,,,0.00,7.0,WUHU216DAVISVP2,2013-12-10 13:24:00,
2013-12-10 08:29:00,27.7,25.4,29.81,WNW,283,0.0,2.0,91,0.00,,,0.00,7.0,WUHU216DAVISVP2,2013-12-10 13:29:00,
2013-12-10 08:34:00,27.8,25.5,29.83,WNW,283,1.0,2.0,91,0.00,,,0.00,5.0,WUHU216DAVISVP2,2013-12-10 13:34:00,
2013-12-10 08:39:00,28.1,25.8,29.84,WNW,283,0.0,2.0,91,0.00,,,0.00,5.0,WUHU216DAVISVP2,2013-12-10 13:39:00,
2013-12-10 08:44:00,28.4,26.1,29.84,WNW,301,0.0,3.0,91,0.00,,,0.00,9.0,WUHU216DAVISVP2,2013-12-10 13:44:00,
2013-12-10 08:49:00,28.9,26.6,29.84,WNW,295,1.0,3.0,91,0.00,,,0.00,9.0,WUHU216DAVISVP2,2013-12-10 13:49:00,
2013-12-10 08:54:00,29.4,27.0,29.85,WNW,295,1.0,3.0,91,0.00,,,0.00,11.0,WUHU216DAVISVP2,2013-12-10 13:54:00,
2013-12-10 08:59:00,29.9,27.3,29.84,WNW,296,1.0,3.0,90,0.00,,,0.00,12.0,WUHU216DAVISVP2,2013-12-10 13:59:00,
2013-12-10 09:04:00,30.3,27.4,29.83,WNW,296,0.0,3.0,89,0.00,,,0.00,12.0,WUHU216DAVISVP2,2013-12-10 14:04:00,
2013-12-10 09:09:00,30.7,27.5,29.82,WNW,296,0.0,2.0,88,0.00,,,0.00,12.0,WUHU216DAVISVP2,2013-12-10 14:09:00,
2013-12-10 09:14:00,30.8,27.7,29.82,WNW,296,0.0,2.0,88,0.00,,,0.00,12.0,WUHU216DAVISVP2,2013-12-10 14:14:00,
2013-12-10 09:19:00,30.9,27.7,29.80,WNW,296,0.0,2.0,88,0.00,,,0.00,18.0,WUHU216DAVISVP2,2013-12-10 14:19:00,
2013-12-10 09:24:00,31.1,28.0,29.81,WNW,296,0.0,2.0,88,0.00,,,0.00,18.0,WUHU216DAVISVP2,2013-12-10 14:24:00,
2013-12-10 09:29:00,31.2,28.0,29.81,WNW,296,0.0,1.0,88,0.00,,,0.00,14.0,WUHU216DAVISVP2,2013-12-10 14:29:00,
2013-12-10 09:34:00,31.3,28.1,29.82,WNW,296,0.0,1.0,88,0.00,,,0.00,18.0,WUHU216DAVISVP2,2013-12-10 14:34:00,
2013-12-10 09:39:00,31.3,28.1,29.81,WNW,296,0.0,1.0,88,0.00,,,0.00,18.0,WUHU216DAVISVP2,2013-12-10 14:39:00,
2013-12-10 09:44:00,31.4,28.2,29.83,WNW,296,0.0,1.0,88,0.00,,,0.00,16.0,WUHU216DAVISVP2,2013-12-10 14:44:00,
2013-12-10 09:49:00,31.5,28.3,29.82,WNW,296,0.0,1.0,88,0.00,,,0.00,14.0,WUHU216DAVISVP2,2013-12-10 14:49:00,
2013-12-10 09:54:00,31.6,28.4,29.82,WNW,296,0.0,2.0,88,0.00,,,0.00,18.0,WUHU216DAVISVP2,2013-12-10 14:54:00,
2013-12-10 09:59:00,31.6,28.1,29.83,WNW,282,1.0,3.0,87,0.00,,,0.00,14.0,WUHU216DAVISVP2,2013-12-10 14:59:00,
2013-12-10 10:04:00,31.9,27.6,29.83,WNW,283,0.0,3.0,84,0.00,,,0.00,12.0,WUHU216DAVISVP2,2013-12-10 15:04:00,
2013-12-10 10:09:00,31.9,27.9,29.83,WNW,283,0.0,3.0,85,0.00,,,0.00,16.0,WUHU216DAVISVP2,2013-12-10 15:09:00,
2013-12-10 10:14:00,32.0,28.0,29.82,WNW,283,0.0,3.0,85,0.00,,,0.00,21.0,WUHU216DAVISVP2,2013-12-10 15:14:00,
2013-12-10 10:19:00,32.0,28.0,29.81,WNW,283,1.0,3.0,85,0.00,,,0.00,21.0,WUHU216DAVISVP2,2013-12-10 15:19:00,
2013-12-10 10:24:00,32.1,28.4,29.80,WNW,283,0.0,2.0,86,0.00,,,0.00,35.0,WUHU216DAVISVP2,2013-12-10 15:24:00,
2013-12-10 10:29:00,32.3,28.6,29.80,WNW,283,0.0,2.0,86,0.00,,,0.00,35.0,WUHU216DAVISVP2,2013-12-10 15:29:00,
2013-12-10 10:34:00,32.6,28.8,29.81,WNW,283,0.0,2.0,86,0.00,,,0.00,39.0,WUHU216DAVISVP2,2013-12-10 15:34:00,
2013-12-10 10:39:00,33.0,29.3,29.80,WNW,283,0.0,2.0,86,0.00,,,0.00,46.0,WUHU216DAVISVP2,2013-12-10 15:39:00,
2013-12-10 10:44:00,33.3,29.5,29.80,WNW,283,0.0,2.0,86,0.00,,,0.00,46.0,WUHU216DAVISVP2,2013-12-10 15:44:00,
2013-12-10 10:49:00,33.7,28.5,29.80,WNW,284,0.0,2.0,81,0.00,,,0.00,37.0,WUHU216DAVISVP2,2013-12-10 15:49:00,
2013-12-10 10:54:00,34.1,28.3,29.79,WNW,284,0.0,2.0,79,0.00,,,0.00,32.0,WUHU216DAVISVP2,2013-12-10 15:54:00,
2013-12-10 10:59:00,34.4,28.6,29.78,WSW,244,0.0,3.0,79,0.00,,,0.00,32.0,WUHU216DAVISVP2,2013-12-10 15:59:00,
2013-12-10 11:04:00,34.6,27.2,29.78,WSW,244,0.0,3.0,74,0.00,,,0.00,26.0,WUHU216DAVISVP2,2013-12-10 16:04:00,
2013-12-10 11:09:00,34.6,26.9,29.78,WSW,250,2.0,3.0,73,0.00,,,0.00,26.0,WUHU216DAVISVP2,2013-12-10 16:09:00,
2013-12-10 11:14:00,34.6,26.5,29.77,NW,321,1.0,3.0,72,0.00,,,0.00,23.0,WUHU216DAVISVP2,2013-12-10 16:14:00,
2013-12-10 11:19:00,34.6,27.8,29.77,WNW,300,1.0,3.0,76,0.00,,,0.00,23.0,WUHU216DAVISVP2,2013-12-10 16:19:00,
2013-12-10 11:24:00,34.4,26.7,29.76,WNW,300,0.0,3.0,73,0.00,,,0.00,21.0,WUHU216DAVISVP2,2013-12-10 16:24:00,
2013-12-10 11:29:00,34.4,27.3,29.76,WNW,300,2.0,2.0,75,0.00,,,0.00,21.0,WUHU216DAVISVP2,2013-12-10 16:29:00,
2013-12-10 11:34:00,34.3,27.6,29.75,WNW,300,0.0,2.0,76,0.00,,,0.00,23.0,WUHU216DAVISVP2,2013-12-10 16:34:00,
2013-12-10 11:39:00,34.2,26.2,29.75,SW,235,0.0,2.0,72,0.00,,,0.00,30.0,WUHU216DAVISVP2,2013-12-10 16:39:00,
2013-12-10 11:44:00,33.9,24.2,29.75,WNW,283,1.0,4.0,67,0.00,,,0.00,28.0,WUHU216DAVISVP2,2013-12-10 16:44:00,
2013-12-10 11:49:00,33.9,24.1,29.74,WNW,283,2.0,4.0,67,0.00,,,0.00,32.0,WUHU216DAVISVP2,2013-12-10 16:49:00,
2013-12-10 11:54:00,34.0,25.0,29.74,WNW,283,2.0,4.0,69,0.00,,,0.00,28.0,WUHU216DAVISVP2,2013-12-10 16:54:00,
2013-12-10 11:59:00,34.0,24.5,29.73,WSW,248,3.0,4.0,68,0.00,,,0.00,26.0,WUHU216DAVISVP2,2013-12-10 16:59:00,
2013-12-10 12:04:00,33.9,23.8,29.74,WNW,286,2.0,4.0,66,0.00,,,0.00,26.0,WUHU216DAVISVP2,2013-12-10 17:04:00,
2013-12-10 12:09:00,33.9,24.2,29.74,West,279,3.0,7.0,67,0.00,,,0.00,23.0,WUHU216DAVISVP2,2013-12-10 17:09:00,
2013-12-10 12:14:00,33.6,22.8,29.73,WNW,300,5.0,9.0,64,0.00,,,0.00,25.0,WUHU216DAVISVP2,2013-12-10 17:14:00,
2013-12-10 12:19:00,33.5,21.9,29.73,WNW,288,3.0,9.0,62,0.00,,,0.00,23.0,WUHU216DAVISVP2,2013-12-10 17:19:00,
2013-12-10 12:24:00,33.3,21.7,29.73,West,276,3.0,9.0,62,0.00,,,0.00,23.0,WUHU216DAVISVP2,2013-12-10 17:24:00,
2013-12-10 12:29:00,33.1,21.5,29.73,WNW,285,4.0,9.0,62,0.00,,,0.00,19.0,WUHU216DAVISVP2,2013-12-10 17:29:00,
2013-12-10 12:34:00,33.0,21.8,29.74,WNW,284,2.0,9.0,63,0.00,,,0.00,21.0,WUHU216DAVISVP2,2013-12-10 17:34:00,
2013-12-10 12:39:00,33.0,21.8,29.74,West,278,2.0,9.0,63,0.00,,,0.00,19.0,WUHU216DAVISVP2,2013-12-10 17:39:00,
2013-12-10 12:44:00,33.0,22.2,29.74,West,278,3.0,8.0,64,0.00,,,0.00,19.0,WUHU216DAVISVP2,2013-12-10 17:44:00,
2013-12-10 12:49:00,33.0,22.2,29.73,West,269,2.0,8.0,64,0.00,,,0.00,19.0,WUHU216DAVISVP2,2013-12-10 17:49:00,
2013-12-10 12:54:00,33.0,21.8,29.73,WSW,243,3.0,8.0,63,0.00,,,0.00,18.0,WUHU216DAVISVP2,2013-12-10 17:54:00,
2013-12-10 12:59:00,32.9,22.9,29.73,WNW,284,2.0,6.0,66,0.00,,,0.00,16.0,WUHU216DAVISVP2,2013-12-10 17:59:00,
2013-12-10 13:04:00,32.7,22.6,29.73,West,279,3.0,6.0,66,0.00,,,0.00,16.0,WUHU216DAVISVP2,2013-12-10 18:04:00,
2013-12-10 13:09:00,32.6,23.6,29.73,West,281,3.0,6.0,69,0.00,,,0.00,12.0,WUHU216DAVISVP2,2013-12-10 18:09:00,
2013-12-10 13:14:00,32.3,23.3,29.73,West,277,3.0,8.0,69,0.00,,,0.00,11.0,WUHU216DAVISVP2,2013-12-10 18:14:00,
2013-12-10 13:19:00,31.8,23.2,29.73,West,277,3.0,8.0,70,0.00,,,0.00,12.0,WUHU216DAVISVP2,2013-12-10 18:19:00,
2013-12-10 13:24:00,31.5,23.6,29.73,West,273,3.0,8.0,72,0.00,,,0.00,11.0,WUHU216DAVISVP2,2013-12-10 18:24:00,
2013-12-10 13:29:00,31.0,23.4,29.73,WSW,252,4.0,8.0,73,0.00,,,0.00,9.0,WUHU216DAVISVP2,2013-12-10 18:29:00,
2013-12-10 13:34:00,30.8,23.8,29.73,WNW,282,3.0,8.0,75,0.00,,,0.00,11.0,WUHU216DAVISVP2,2013-12-10 18:34:00,
2013-12-10 13:39:00,30.6,24.3,29.73,WNW,285,1.0,8.0,77,0.00,,,0.00,9.0,WUHU216DAVISVP2,2013-12-10 18:39:00,
2013-12-10 13:44:00,30.3,24.0,29.73,West,267,2.0,8.0,77,0.00,,,0.00,9.0,WUHU216DAVISVP2,2013-12-10 18:44:00,
2013-12-10 13:49:00,30.3,24.3,29.73,West,267,1.0,4.0,78,0.00,,,0.00,9.0,WUHU216DAVISVP2,2013-12-10 18:49:00,
2013-12-10 13:54:00,30.3,24.6,29.73,West,267,1.0,4.0,79,0.00,,,0.00,9.0,WUHU216DAVISVP2,2013-12-10 18:54:00,
2013-12-10 13:59:00,30.2,24.8,29.73,WSW,240,2.0,4.0,80,0.00,,,0.00,9.0,WUHU216DAVISVP2,2013-12-10 18:59:00,
2013-12-10 14:04:00,30.2,25.1,29.72,SW,236,1.0,4.0,81,0.00,,,0.00,11.0,WUHU216DAVISVP2,2013-12-10 19:04:00,
2013-12-10 14:09:00,30.1,25.5,29.73,WSW,248,2.0,4.0,83,0.00,,,0.00,9.0,WUHU216DAVISVP2,2013-12-10 19:09:00,
2013-12-10 14:14:00,29.9,25.4,29.73,SSW,196,1.0,4.0,83,0.00,,,0.00,5.0,WUHU216DAVISVP2,2013-12-10 19:14:00,
2013-12-10 14:19:00,29.7,25.4,29.73,WSW,245,4.0,7.0,84,0.00,,,0.00,9.0,WUHU216DAVISVP2,2013-12-10 19:19:00,
2013-12-10 14:24:00,29.4,25.1,29.72,West,273,0.0,7.0,84,0.00,,,0.00,19.0,WUHU216DAVISVP2,2013-12-10 19:24:00,
2013-12-10 14:29:00,29.4,24.9,29.73,WNW,297,1.0,7.0,83,0.00,,,0.00,21.0,WUHU216DAVISVP2,2013-12-10 19:29:00,
2013-12-10 14:34:00,29.3,24.8,29.74,NW,311,2.0,7.0,83,0.00,,,0.00,19.0,WUHU216DAVISVP2,2013-12-10 19:34:00,
2013-12-10 14:39:00,29.4,24.6,29.74,WSW,250,4.0,7.0,82,0.00,,,0.00,19.0,WUHU216DAVISVP2,2013-12-10 19:39:00,
2013-12-10 14:44:00,29.4,24.0,29.73,West,275,1.0,8.0,80,0.00,,,0.00,18.0,WUHU216DAVISVP2,2013-12-10 19:44:00,
2013-12-10 14:49:00,29.5,24.1,29.74,WNW,284,4.0,8.0,80,0.00,,,0.00,18.0,WUHU216DAVISVP2,2013-12-10 19:49:00,
2013-12-10 14:54:00,29.5,23.5,29.73,West,264,1.0,8.0,78,0.00,,,0.00,16.0,WUHU216DAVISVP2,2013-12-10 19:54:00,
2013-12-10 14:59:00,29.5,23.5,29.74,WNW,293,1.0,5.0,78,0.00,,,0.00,16.0,WUHU216DAVISVP2,2013-12-10 19:59:00,
2013-12-10 15:04:00,29.5,23.5,29.74,WSW,238,5.0,5.0,78,0.00,,,0.00,16.0,WUHU216DAVISVP2,2013-12-10 20:04:00,
2013-12-10 15:09:00,29.4,23.4,29.74,West,274,1.0,7.0,78,0.00,,,0.00,12.0,WUHU216DAVISVP2,2013-12-10 20:09:00,
2013-12-10 15:14:00,29.4,23.4,29.74,WSW,242,1.0,7.0,78,0.00,,,0.00,9.0,WUHU216DAVISVP2,2013-12-10 20:14:00,
2013-12-10 15:19:00,29.3,23.3,29.74,WNW,288,1.0,7.0,78,0.00,,,0.00,7.0,WUHU216DAVISVP2,2013-12-10 20:19:00,
2013-12-10 15:24:00,29.3,23.3,29.74,WNW,288,1.0,4.0,78,0.00,,,0.00,7.0,WUHU216DAVISVP2,2013-12-10 20:24:00,
2013-12-10 15:29:00,29.3,23.6,29.74,WNW,288,1.0,4.0,79,0.00,,,0.00,5.0,WUHU216DAVISVP2,2013-12-10 20:29:00,
2013-12-10 15:34:00,29.3,23.3,29.74,WNW,288,1.0,4.0,78,0.00,,,0.00,5.0,WUHU216DAVISVP2,2013-12-10 20:34:00,
2013-12-10 15:39:00,29.2,22.9,29.74,WSW,247,0.0,4.0,77,0.00,,,0.00,5.0,WUHU216DAVISVP2,2013-12-10 20:39:00,
2013-12-10 15:44:00,29.1,22.5,29.74,South,182,0.0,4.0,76,0.00,,,0.00,0.0,WUHU216DAVISVP2,2013-12-10 20:44:00,
2013-12-10 15:49:00,29.1,22.5,29.74,South,183,1.0,4.0,76,0.00,,,0.00,0.0,WUHU216DAVISVP2,2013-12-10 20:49:00,
2013-12-10 15:54:00,29.1,23.1,29.73,South,183,0.0,4.0,78,0.00,,,0.00,0.0,WUHU216DAVISVP2,2013-12-10 20:54:00,
2013-12-10 15:59:00,29.1,22.8,29.74,South,183,0.0,3.0,77,0.00,,,0.00,0.0,WUHU216DAVISVP2,2013-12-10 20:59:00,
2013-12-10 16:04:00,29.0,22.7,29.74,South,183,0.0,1.0,77,0.00,,,0.00,0.0,WUHU216DAVISVP2,2013-12-10 21:04:00,
2013-12-10 16:09:00,28.9,22.6,29.74,South,183,0.0,0.0,77,0.00,,,0.00,0.0,WUHU216DAVISVP2,2013-12-10 21:09:00,
2013-12-10 16:14:00,28.8,22.8,29.74,South,183,0.0,0.0,78,0.00,,,0.00,0.0,WUHU216DAVISVP2,2013-12-10 21:14:00,
2013-12-10 16:19:00,28.7,22.7,29.74,SW,217,1.0,2.0,78,0.00,,,0.00,0.0,WUHU216DAVISVP2,2013-12-10 21:19:00,
2013-12-10 16:24:00,28.4,22.7,29.74,SW,232,2.0,3.0,79,0.00,,,0.00,0.0,WUHU216DAVISVP2,2013-12-10 21:24:00,
2013-12-10 16:29:00,28.3,22.0,29.74,WNW,285,1.0,3.0,77,0.00,,,0.00,0.0,WUHU216DAVISVP2,2013-12-10 21:29:00,
2013-12-10 16:34:00,28.2,21.3,29.75,WNW,290,2.0,4.0,75,0.00,,,0.00,0.0,WUHU216DAVISVP2,2013-12-10 21:34:00,
2013-12-10 16:39:00,28.2,21.6,29.75,West,279,1.0,4.0,76,0.00,,,0.00,0.0,WUHU216DAVISVP2,2013-12-10 21:39:00,
2013-12-10 16:44:00,28.1,21.5,29.75,West,279,1.0,4.0,76,0.00,,,0.00,0.0,WUHU216DAVISVP2,2013-12-10 21:44:00,
2013-12-10 16:49:00,27.9,21.3,29.75,West,279,0.0,4.0,76,0.00,,,0.00,0.0,WUHU216DAVISVP2,2013-12-10 21:49:00,
2013-12-10 16:54:00,27.9,21.6,29.75,West,279,0.0,3.0,77,0.00,,,0.00,0.0,WUHU216DAVISVP2,2013-12-10 21:54:00,
2013-12-10 16:59:00,27.8,21.6,29.75,West,279,0.0,2.0,77,0.00,,,0.00,0.0,WUHU216DAVISVP2,2013-12-10 21:59:00,
2013-12-10 17:04:00,27.8,21.8,29.75,West,279,0.0,2.0,78,0.00,,,0.00,0.0,WUHU216DAVISVP2,2013-12-10 22:04:00,
2013-12-10 17:09:00,27.6,22.0,29.75,West,279,0.0,1.0,79,0.00,,,0.00,0.0,WUHU216DAVISVP2,2013-12-10 22:09:00,
2013-12-10 17:14:00,27.5,21.5,29.75,West,279,0.0,1.0,78,0.00,,,0.00,0.0,WUHU216DAVISVP2,2013-12-10 22:14:00,
2013-12-10 17:19:00,27.3,21.7,29.76,West,279,0.0,1.0,79,0.00,,,0.00,0.0,WUHU216DAVISVP2,2013-12-10 22:19:00,
2013-12-10 17:24:00,27.1,21.5,29.77,West,279,1.0,1.0,79,0.00,,,0.00,0.0,WUHU216DAVISVP2,2013-12-10 22:24:00,
2013-12-10 17:29:00,26.9,21.3,29.77,West,279,1.0,1.0,79,0.00,,,0.00,0.0,WUHU216DAVISVP2,2013-12-10 22:29:00,
2013-12-10 17:34:00,26.6,21.0,29.77,West,279,0.0,1.0,79,0.00,,,0.00,0.0,WUHU216DAVISVP2,2013-12-10 22:34:00,
2013-12-10 17:39:00,26.1,20.8,29.77,West,277,1.0,3.0,80,0.00,,,0.00,0.0,WUHU216DAVISVP2,2013-12-10 22:39:00,
2013-12-10 17:44:00,25.7,20.4,29.77,West,277,0.0,3.0,80,0.00,,,0.00,0.0,WUHU216DAVISVP2,2013-12-10 22:44:00,
2013-12-10 17:49:00,25.4,20.1,29.78,West,277,0.0,3.0,80,0.00,,,0.00,0.0,WUHU216DAVISVP2,2013-12-10 22:49:00,
2013-12-10 17:54:00,25.3,19.7,29.77,West,277,0.0,3.0,79,0.00,,,0.00,0.0,WUHU216DAVISVP2,2013-12-10 22:54:00,
2013-12-10 17:59:00,25.1,19.5,29.78,West,277,0.0,2.0,79,0.00,,,0.00,0.0,WUHU216DAVISVP2,2013-12-10 22:59:00,
2013-12-10 18:04:00,24.9,19.3,29.78,West,276,1.0,1.0,79,0.00,,,0.00,0.0,WUHU216DAVISVP2,2013-12-10 23:04:00,
2013-12-10 18:09:00,24.9,18.7,29.78,SW,225,0.0,6.0,77,0.00,,,0.00,0.0,WUHU216DAVISVP2,2013-12-10 23:09:00,
2013-12-10 18:14:00,25.3,18.5,29.78,West,271,8.0,8.0,75,0.00,,,0.00,0.0,WUHU216DAVISVP2,2013-12-10 23:14:00,
2013-12-10 18:19:00,26.2,17.8,29.78,WNW,287,4.0,9.0,70,0.00,,,0.00,0.0,WUHU216DAVISVP2,2013-12-10 23:19:00,
2013-12-10 18:24:00,26.7,16.6,29.78,WNW,290,3.0,11.0,65,0.00,,,0.00,0.0,WUHU216DAVISVP2,2013-12-10 23:24:00,
2013-12-10 18:29:00,26.8,15.6,29.78,West,278,3.0,13.0,62,0.00,,,0.00,0.0,WUHU216DAVISVP2,2013-12-10 23:29:00,
2013-12-10 18:34:00,26.5,15.3,29.79,West,277,2.0,13.0,62,0.00,,,0.00,0.0,WUHU216DAVISVP2,2013-12-10 23:34:00,
2013-12-10 18:39:00,26.0,15.2,29.80,WNW,286,2.0,13.0,63,0.00,,,0.00,0.0,WUHU216DAVISVP2,2013-12-10 23:39:00,
2013-12-10 18:44:00,26.0,14.4,29.79,WNW,292,4.0,11.0,61,0.00,,,0.00,0.0,WUHU216DAVISVP2,2013-12-10 23:44:00,
2013-12-10 18:49:00,25.9,14.3,29.80,WNW,290,2.0,11.0,61,0.00,,,0.00,0.0,WUHU216DAVISVP2,2013-12-10 23:49:00,
2013-12-10 18:54:00,26.0,13.7,29.80,West,278,6.0,11.0,59,0.00,,,0.00,0.0,WUHU216DAVISVP2,2013-12-10 23:54:00,
2013-12-10 18:59:00,25.7,13.4,29.80,SSW,213,2.0,11.0,59,0.00,,,0.00,0.0,WUHU216DAVISVP2,2013-12-10 23:59:00,
2013-12-10 19:04:00,25.7,14.8,29.81,North,5,1.0,8.0,63,0.00,,,0.00,0.0,WUHU216DAVISVP2,2013-12-11 00:04:00,
2013-12-10 19:09:00,25.2,12.5,29.81,WNW,282,1.0,8.0,58,0.00,,,0.00,0.0,WUHU216DAVISVP2,2013-12-11 00:09:00,
2013-12-10 19:14:00,24.9,13.8,29.81,West,281,2.0,7.0,62,0.00,,,0.00,0.0,WUHU216DAVISVP2,2013-12-11 00:14:00,
2013-12-10 19:19:00,24.3,12.4,29.81,WSW,247,7.0,7.0,60,0.00,,,0.00,0.0,WUHU216DAVISVP2,2013-12-11 00:19:00,
2013-12-10 19:24:00,24.7,11.6,29.81,WNW,282,8.0,10.0,57,0.00,,,0.00,0.0,WUHU216DAVISVP2,2013-12-11 00:24:00,
2013-12-10 19:29:00,25.0,11.5,29.81,West,264,3.0,10.0,56,0.00,,,0.00,0.0,WUHU216DAVISVP2,2013-12-11 00:29:00,
2013-12-10 19:34:00,24.6,11.1,29.80,WSW,238,6.0,10.0,56,0.00,,,0.00,0.0,WUHU216DAVISVP2,2013-12-11 00:34:00,
2013-12-10 19:39:00,24.6,11.1,29.80,West,281,4.0,11.0,56,0.00,,,0.00,0.0,WUHU216DAVISVP2,2013-12-11 00:39:00,
2013-12-10 19:44:00,24.4,10.9,29.80,West,268,6.0,11.0,56,0.00,,,0.00,0.0,WUHU216DAVISVP2,2013-12-11 00:44:00,
2013-12-10 19:49:00,24.3,10.9,29.80,West,279,3.0,11.0,56,0.00,,,0.00,0.0,WUHU216DAVISVP2,2013-12-11 00:49:00,
2013-12-10 19:54:00,24.3,10.4,29.80,WNW,298,4.0,9.0,55,0.00,,,0.00,0.0,WUHU216DAVISVP2,2013-12-11 00:54:00,
2013-12-10 19:59:00,24.3,10.4,29.81,West,275,4.0,10.0,55,0.00,,,0.00,0.0,WUHU216DAVISVP2,2013-12-11 00:59:00,
2013-12-10 20:04:00,24.1,10.6,29.81,West,281,2.0,10.0,56,0.00,,,0.00,0.0,WUHU216DAVISVP2,2013-12-11 01:04:00,
2013-12-10 20:09:00,23.9,10.9,29.81,West,274,4.0,10.0,57,0.00,,,0.00,0.0,WUHU216DAVISVP2,2013-12-11 01:09:00,
2013-12-10 20:14:00,23.5,10.9,29.81,West,277,4.0,7.0,58,0.00,,,0.00,0.0,WUHU216DAVISVP2,2013-12-11 01:14:00,
2013-12-10 20:19:00,23.5,10.5,29.81,WNW,289,2.0,7.0,57,0.00,,,0.00,0.0,WUHU216DAVISVP2,2013-12-11 01:19:00,
2013-12-10 20:24:00,23.5,10.9,29.81,WNW,285,4.0,7.0,58,0.00,,,0.00,0.0,WUHU216DAVISVP2,2013-12-11 01:24:00,
2013-12-10 20:29:00,23.4,10.4,29.82,West,265,3.0,6.0,57,0.00,,,0.00,0.0,WUHU216DAVISVP2,2013-12-11 01:29:00,
2013-12-10 20:34:00,23.1,10.5,29.82,WNW,288,1.0,5.0,58,0.00,,,0.00,0.0,WUHU216DAVISVP2,2013-12-11 01:34:00,
2013-12-10 20:39:00,22.7,10.9,29.82,WNW,287,1.0,5.0,60,0.00,,,0.00,0.0,WUHU216DAVISVP2,2013-12-11 01:39:00,
2013-12-10 20:44:00,22.4,10.6,29.82,WNW,287,1.0,4.0,60,0.00,,,0.00,0.0,WUHU216DAVISVP2,2013-12-11 01:44:00,
2013-12-10 20:49:00,22.1,11.5,29.82,WNW,287,0.0,4.0,63,0.00,,,0.00,0.0,WUHU216DAVISVP2,2013-12-11 01:49:00,
2013-12-10 20:54:00,21.5,11.3,29.83,WNW,288,0.0,4.0,64,0.00,,,0.00,0.0,WUHU216DAVISVP2,2013-12-11 01:54:00,
2013-12-10 20:59:00,21.1,11.2,29.83,West,277,2.0,4.0,65,0.00,,,0.00,0.0,WUHU216DAVISVP2,2013-12-11 01:59:00,
2013-12-10 21:04:00,21.0,11.4,29.83,West,281,2.0,4.0,66,0.00,,,0.00,0.0,WUHU216DAVISVP2,2013-12-11 02:04:00,
2013-12-10 21:09:00,20.9,11.4,29.84,West,277,3.0,3.0,66,0.00,,,0.00,0.0,WUHU216DAVISVP2,2013-12-11 02:09:00,
2013-12-10 21:14:00,21.3,11.1,29.84,West,277,2.0,4.0,64,0.00,,,0.00,0.0,WUHU216DAVISVP2,2013-12-11 02:14:00,
2013-12-10 21:19:00,21.0,11.8,29.84,WNW,284,0.0,4.0,67,0.00,,,0.00,0.0,WUHU216DAVISVP2,2013-12-11 02:19:00,
2013-12-10 21:24:00,20.8,12.0,29.85,WNW,284,0.0,4.0,68,0.00,,,0.00,0.0,WUHU216DAVISVP2,2013-12-11 02:24:00,
2013-12-10 21:29:00,20.6,11.7,29.85,WNW,284,0.0,4.0,68,0.00,,,0.00,0.0,WUHU216DAVISVP2,2013-12-11 02:29:00,
2013-12-10 21:34:00,20.2,11.7,29.85,WNW,284,1.0,3.0,69,0.00,,,0.00,0.0,WUHU216DAVISVP2,2013-12-11 02:34:00,
2013-12-10 21:39:00,20.0,11.8,29.85,WNW,284,0.0,3.0,70,0.00,,,0.00,0.0,WUHU216DAVISVP2,2013-12-11 02:39:00,
2013-12-10 21:44:00,19.9,11.7,29.86,WNW,284,0.0,3.0,70,0.00,,,0.00,0.0,WUHU216DAVISVP2,2013-12-11 02:44:00,
2013-12-10 21:49:00,19.7,11.9,29.86,WNW,284,0.0,3.0,71,0.00,,,0.00,0.0,WUHU216DAVISVP2,2013-12-11 02:49:00,
2013-12-10 21:54:00,19.5,11.7,29.86,WNW,284,0.0,2.0,71,0.00,,,0.00,0.0,WUHU216DAVISVP2,2013-12-11 02:54:00,
2013-12-10 21:59:00,19.4,11.9,29.86,WNW,284,0.0,2.0,72,0.00,,,0.00,0.0,WUHU216DAVISVP2,2013-12-11 02:59:00,
2013-12-10 22:04:00,19.0,11.8,29.86,WNW,284,1.0,2.0,73,0.00,,,0.00,0.0,WUHU216DAVISVP2,2013-12-11 03:04:00,
2013-12-10 22:09:00,18.8,11.6,29.86,WNW,284,0.0,2.0,73,0.00,,,0.00,0.0,WUHU216DAVISVP2,2013-12-11 03:09:00,
2013-12-10 22:14:00,18.6,11.7,29.86,WNW,284,0.0,2.0,74,0.00,,,0.00,0.0,WUHU216DAVISVP2,2013-12-11 03:14:00,
2013-12-10 22:19:00,18.6,12.0,29.86,WNW,284,0.0,2.0,75,0.00,,,0.00,0.0,WUHU216DAVISVP2,2013-12-11 03:19:00,
2013-12-10 22:24:00,18.5,11.9,29.86,WNW,284,0.0,2.0,75,0.00,,,0.00,0.0,WUHU216DAVISVP2,2013-12-11 03:24:00,
2013-12-10 22:29:00,18.5,11.9,29.86,WNW,284,0.0,1.0,75,0.00,,,0.00,0.0,WUHU216DAVISVP2,2013-12-11 03:29:00,
2013-12-10 22:34:00,18.4,12.1,29.86,NNW,335,2.0,3.0,76,0.00,,,0.00,0.0,WUHU216DAVISVP2,2013-12-11 03:34:00,
2013-12-10 22:39:00,18.3,11.7,29.87,NNW,340,0.0,3.0,75,0.00,,,0.00,0.0,WUHU216DAVISVP2,2013-12-11 03:39:00,
2013-12-10 22:44:00,18.2,11.9,29.87,NNW,340,0.0,3.0,76,0.00,,,0.00,0.0,WUHU216DAVISVP2,2013-12-11 03:44:00,
2013-12-10 22:49:00,18.1,11.8,29.87,North,355,2.0,3.0,76,0.00,,,0.00,0.0,WUHU216DAVISVP2,2013-12-11 03:49:00,
2013-12-10 22:54:00,18.1,11.8,29.87,WNW,294,0.0,3.0,76,0.00,,,0.00,0.0,WUHU216DAVISVP2,2013-12-11 03:54:00,
2013-12-10 22:59:00,18.0,11.7,29.87,NNW,339,2.0,3.0,76,0.00,,,0.00,0.0,WUHU216DAVISVP2,2013-12-11 03:59:00,
2013-12-10 23:04:00,18.0,12.0,29.88,WNW,288,1.0,3.0,77,0.00,,,0.00,0.0,WUHU216DAVISVP2,2013-12-11 04:04:00,
2013-12-10 23:09:00,17.9,11.9,29.88,NNE,30,2.0,3.0,77,0.00,,,0.00,0.0,WUHU216DAVISVP2,2013-12-11 04:09:00,
2013-12-10 23:14:00,17.8,11.8,29.88,NNE,17,1.0,3.0,77,0.00,,,0.00,0.0,WUHU216DAVISVP2,2013-12-11 04:14:00,
2013-12-10 23:19:00,17.7,11.7,29.88,North,5,1.0,3.0,77,0.00,,,0.00,0.0,WUHU216DAVISVP2,2013-12-11 04:19:00,
2013-12-10 23:24:00,17.5,11.5,29.88,North,5,1.0,3.0,77,0.00,,,0.00,0.0,WUHU216DAVISVP2,2013-12-11 04:24:00,
2013-12-10 23:29:00,17.4,11.4,29.88,North,5,0.0,3.0,77,0.00,,,0.00,0.0,WUHU216DAVISVP2,2013-12-11 04:29:00,
2013-12-10 23:34:00,17.2,11.5,29.88,North,5,0.0,2.0,78,0.00,,,0.00,0.0,WUHU216DAVISVP2,2013-12-11 04:34:00,
2013-12-10 23:39:00,17.0,11.3,29.88,NW,322,2.0,3.0,78,0.00,,,0.00,0.0,WUHU216DAVISVP2,2013-12-11 04:39:00,
2013-12-10 23:44:00,16.8,11.4,29.89,North,355,0.0,3.0,79,0.00,,,0.00,0.0,WUHU216DAVISVP2,2013-12-11 04:44:00,
2013-12-10 23:49:00,16.6,11.2,29.89,WNW,296,1.0,3.0,79,0.00,,,0.00,0.0,WUHU216DAVISVP2,2013-12-11 04:49:00,
2013-12-10 23:54:00,16.4,11.0,29.89,WNW,296,0.0,3.0,79,0.00,,,0.00,0.0,WUHU216DAVISVP2,2013-12-11 04:54:00,
2013-12-10 23:59:00,16.4,11.3,29.89,NNE,12,2.0,3.0,80,0.00,,,0.00,0.0,WUHU216DAVISVP2,2013-12-11 04:59:00,